Location: Sternwarte-Kraichtal
(49.1689°N, 8.6996°E)
Time: 07:47:51
(UTC+02:00)

Vanguard 2 Rocket - Pass Details

Date: 27 May 2022
Orbit: 553 x 3323 km, 32.9° (Epoch: 04 July)

Event Time Altitude Azimuth Distance (km) Brightness Sun altitude
Rises 15:15:18 0° 238° (WSW) 7,306 12.1 54.3°
Reaches altitude 10° 15:20:50 10° 232° (SW) 6,217 12.0 53.6°
Maximum altitude 15:37:31 39° 173° (S) 3,562 10.7 51.4°
Drops below altitude 10° 15:49:08 10° 110° (ESE) 4,386 10.2 49.8°
Sets 15:52:15 0° 103° (ESE) 5,042 10.4 49.4°
